This is the latest recevied weather packets stored in our database for station/object W1LBM. If no packets are shown the sender has not sent any weather packets the latest 10 day(s).
| Time | Temp. | Humidity | Pressure | Rain* | Wind** | Luminosity | Snow |
|---|---|---|---|---|---|---|---|
| 1777586196 | 11.67° C | 91% | 1008.9 hPa | 0 mm | - | 33 W/m² | - |
| 1777585894 | 11.67° C | 89% | 1008.9 hPa | 0 mm | - | 25 W/m² | - |
| 1777585594 | 11.67° C | 89% | 1009 hPa | 0 mm | - | 17 W/m² | - |
| 1777585290 | 11.67° C | 89% | 1008.8 hPa | 0 mm | - | 17 W/m² | - |
| 1777584984 | 11.67° C | 89% | 1008.8 hPa | 0 mm | - | 18 W/m² | - |
| 1777584682 | 11.67° C | 89% | 1008.8 hPa | 0 mm | - | 26 W/m² | - |
| 1777584379 | 11.67° C | 88% | 1008.7 hPa | 0 mm | - | 30 W/m² | - |
| 1777584075 | 11.67° C | 88% | 1008.6 hPa | 0 mm | - | 25 W/m² | - |
| 1777583770 | 11.67° C | 89% | 1008.6 hPa | 0 mm | - | 25 W/m² | - |
| 1777583469 | 12.22° C | 89% | 1008.6 hPa | 0 mm | - | 33 W/m² | - |
| 1777583169 | 11.67° C | 89% | 1008.6 hPa | 0 mm | - | 34 W/m² | - |
| 1777582865 | 12.22° C | 88% | 1008.5 hPa | 0 mm | - | 34 W/m² | - |
| 1777582562 | 11.67° C | 88% | 1008.7 hPa | 0 mm | - | 34 W/m² | - |
| 1777582257 | 12.22° C | 88% | 1008.4 hPa | 0 mm | - | 39 W/m² | - |
| 1777581954 | 11.67° C | 88% | 1008.7 hPa | 0 mm | - | 54 W/m² | - |
| 1777581650 | 11.67° C | 87% | 1008.7 hPa | 0 mm | - | 41 W/m² | - |
| 1777581344 | 12.22° C | 88% | 1008.8 hPa | 0 mm | - | 44 W/m² | - |
| 1777581039 | 12.22° C | 88% | 1008.7 hPa | 0 mm | - | 44 W/m² | - |
| 1777580739 | 12.22° C | 88% | 1008.5 hPa | 0 mm | - | 55 W/m² | - |
| 1777580436 | 11.67° C | 88% | 1008.5 hPa | 0 mm | - | 58 W/m² | - |
| 1777580131 | 11.67° C | 88% | 1008.5 hPa | 0 mm | - | 52 W/m² | - |
| 1777579828 | 12.22° C | 88% | 1008.5 hPa | 0 mm | - | 47 W/m² | - |
| 1777579527 | 11.67° C | 88% | 1008.7 hPa | 0 mm | - | 48 W/m² | - |
| 1777579227 | 12.22° C | 87% | 1008.7 hPa | 0 mm | - | 50 W/m² | - |
| 1777578922 | 12.22° C | 87% | 1008.5 hPa | 0 mm | - | 53 W/m² | - |
* Rain latest hour (hover to see other rain measurements)
** Current wind speed in m/s (hover to see current wind gust speed)